Location: Linton
(52.0940°N, 0.2850°E)
Time: 00:18:25
(UTC+01:00)

ISS - Pass Details

Date: 10 October 2017
Orbit: 401 x 408 km, 51.6° (Epoch: 21 October)

Event Time Altitude Azimuth Distance (km) Brightness Sun altitude
Rises 20:03:49 0° 282° (WNW) 2,328 1.8 -17.4°
Reaches altitude 10° 20:06:01 10° 272° (W) 1,467 0.2 -17.7°
Maximum altitude 20:08:59 31° 208° (SSW) 737 -2.4 -18.2°
Enters shadow 20:09:48 27° 178° (S) 818 -2.5 -18.3°
